Regional Weather Roundup
Issued by NWS

Home | Current Version | Previous Version | Graphics & Text | Print | Product List | Glossary On
Versions: 1 2 3 4 5 6 7 8 9 10 11 12 13 14 15 16 17 18 19 20 21 22 23 24 25 26 27 28 29 30 31 32 33 34 35 36 37 38 39 40 41 42 43 44 45 46 47 48 49 50
096
ASUS43 KDMX 211606
RWRIA

WEATHER ROUNDUP FOR IOWA
NATIONAL WEATHER SERVICE DES MOINES IA
1100 AM CDT MON AUG 21 2017

NOTE: "FAIR" INDICATES FEW OR NO CLOUDS BELOW 12,000 FEET WITH NO
SIGNIFICANT WEATHER AND/OR OBSTRUCTIONS TO VISIBILITY.

* - THESE STATIONS ARE NOT NWS STATIONS...THUS NOT UNDER NWS
QUALITY CONTROL.  THEY ALSO DO NOT REPORT WEATHER SUCH
AS PRECIPITATION OR FOG.

IAZ001>003-012>014-020>022-031>034-043>046-211700-
   NORTHWEST IOWA

CITY           SKY/WX    TMP DP  RH WIND       PRES   REMARKS
CARROLL *      CLOUDY    72  66  83 S14G24    30.02R
CHEROKEE *       N/A    N/A N/A N/A MISG      29.97
DENISON *      MOSUNNY   73  68  83 S13G24    30.00S
LE MARS *      MOSUNNY  102 N/A N/A S20       29.94F
ORANGE CITY *  CLOUDY    77  68  73 S10G20    29.95F
SHELDON *      PTSUNNY   72  63  73 S12G20    29.95F
SIOUX CITY     PTSUNNY   77  69  76 S18G25    29.95F
SPENCER        PTSUNNY   74  63  68 S15       29.98F
STORM LAKE *   MOSUNNY   70  66  88 S13G20    29.98F
$$

IAZ055>058-069>071-079>083-090>094-211700-
   SOUTHWEST IOWA

CITY           SKY/WX    TMP DP  RH WIND       PRES   REMARKS
ATLANTIC *     CLOUDY    72  66  83 SE13G20   30.02F
AUDUBON *      PTSUNNY   72  66  83 S15       30.02F
CLARINDA *     CLOUDY    77  68  73 SE15G25   30.05F
COUNCIL BLFS * MOSUNNY   75  70  83 SE21G29   30.01S
CRESTON *      PTSUNNY   72  68  88 SE21G29   30.06F
HARLAN  *      MOSUNNY   73  68  83 S16       30.04F
LAMONI         CLOUDY    73  65  75 E10G17    30.08F
RED OAK *      MOSUNNY   75  66  73 SE13G21   30.02F
SHENANDOAH *   CLOUDY    77  66  69 SE16G24   30.03F
$$

IAZ047>049-059>061-072>074-084-211700-
   CENTRAL IOWA

CITY           SKY/WX    TMP DP  RH WIND       PRES   REMARKS
AMES           LGT RAIN  70  66  87 SW20G28   29.97R
ANKENY *       LGT RAIN  68  64  88 S13G18    30.03F
BOONE *        DRIZZLE   70  64  83 SW12G17   30.02R
CHARITON *     LGT RAIN  68  66  94 SE7       30.08F
DES MOINES     LGT RAIN  67  66  97 SE18      30.02F
GRINNELL*      CLOUDY    72  61  67 W20G25    29.99R
KNOXVILLE *    LGT RAIN  66  64  94 W9        30.08F
MARSHALLTOWN   CLOUDY    74  64  71 W18G24    30.00R
NEWTON *       CLOUDY    68  64  88 SW26G39   29.98S
PELLA *        RAIN      66  65  96 W16G24    30.09R
PERRY *        PTSUNNY   70  67  91 SE5       30.03F
$$

IAZ004>006-015-016-023>025-035-036-211700-
   NORTH CENTRAL IOWA

CITY           SKY/WX    TMP DP  RH WIND       PRES   REMARKS
ALGONA *       CLOUDY    73  66  78 W10       29.99F
CLARION *      CLOUDY    66  66 100 NE5       29.99F
ESTHERVILLE    SUNNY     74  67  78 SW10      29.98F
FORT DODGE *   CLOUDY    68  61  77 S8        29.99F
MASON CITY     CLOUDY    71  62  73 S5        30.02F
FOREST CITY *    N/A     72  63  73 SE5       30.00F
WEBSTER CITY * CLOUDY    68  64  88 W5        29.98F
IOWA FALLS *     N/A     68  64  88 N3        30.02S
$$

IAZ007>011-017>019-026>030-037>042-050>054-066-211700-
   NORTHEAST IOWA

CITY           SKY/WX    TMP DP  RH WIND       PRES   REMARKS
CEDAR RAPIDS   CLOUDY    71  66  84 SE8       30.04R
CHARLES CITY * CLOUDY    72  68  88 E8        30.02F
CLINTON *      CLOUDY    72  69  90 S13G22    30.07R
DECORAH *      CLOUDY    73  64  73 SE5       30.02F
DUBUQUE        CLOUDY    72  67  84 S14       30.05R
MONTICELLO *   CLOUDY    73  68  83 S8        30.05R
OELWEIN *      CLOUDY    72  66  83 E8        30.03F
WATERLOO       CLOUDY    73  60  63 NE6       30.01R
$$

IAZ064-065-067-068-078-211700-
   EAST CENTRAL IOWA

CITY           SKY/WX    TMP DP  RH WIND       PRES   REMARKS
DAVENPORT      CLOUDY    72  68  87 SE13G22   30.07F
IOWA CITY      CLOUDY    73  67  81 S12       30.06R
MT. PLEASANT * CLOUDY    72  70  93 S10       30.09S
MUSCATINE *    CLOUDY    73  70  88 S10G17    30.05F
QUAD CITIES    CLOUDY    74  67  78 SE10      30.05F
$$

IAZ062-063-075>077-085>089-095>099-211700-
   SOUTHEAST IOWA

CITY           SKY/WX    TMP DP  RH WIND       PRES   REMARKS
BURLINGTON     CLOUDY    72  70  93 SE7       30.09F
FAIRFIELD *    CLOUDY    72  66  83 S13G20    30.09S
FORT MADISON * PTSUNNY   73  70  88 SE5       30.11R
KEOKUK *       CLOUDY    73  70  88 SE5       30.11R
OSKALOOSA *    LGT RAIN  68  67  96 SW8       30.10R
OTTUMWA        CLOUDY    71  68  90 S10       30.08S
WASHINGTON *   CLOUDY    70  68  94 SE10G18   30.07S
$$

ABBREVIATIONS USED IN REMARKS
   TC - TEMPERATURES IN CELSIUS
  WCI - WIND CHILL INDEX
   HX - HEAT INDEX
  VSB - VISIBILITY
$$





USA.gov is the U.S. government's official web portal to all federal, state and local government web resources and services.